Regional Weather Roundup
Issued by NWS

Home | Current Version | Previous Version | Text Only | Print | Product List | Glossary On
Versions: 1 2 3 4 5 6 7 8 9 10 11 12 13 14 15 16 17 18 19 20 21 22 23 24 25 26 27 28 29 30 31 32 33 34 35 36 37 38 39 40 41 42 43 44 45 46 47 48 49 50
000
ASUS45 KBOU 241407
RWRCO

WEATHER ROUNDUP FOR COLORADO
NATIONAL WEATHER SERVICE DENVER/BOULDER CO
800 AM MDT TUE MAY 24 2016

NOTE: "FAIR" INDICATES FEW OR NO CLOUDS BELOW 12000 FEET WITH NO
SIGNIFICANT WEATHER AND/OR OBSTRUCTIONS TO VISIBILITY.

COZ001>005-013-030-031-241500-
...NORTHWEST COLORADO...

CITY           SKY/WX    TMP DP  RH WIND       PRES   REMARKS
CRAIG          FAIR      42  34  73 CALM      29.94S
HAYDEN         FAIR      46  28  49 E9        29.94S
MEEKER         FAIR      44  31  60 CALM      29.94R
MOUNT WERNER   NOT AVBL
STEAMBOAT SPGS FAIR      42  31  64 CALM      29.96F
WALDEN         FAIR      37  28  70 CALM      30.04F
$$

COZ006>008-011-241500-
...WEST CENTRAL VALLEYS...

CITY           SKY/WX    TMP DP  RH WIND       PRES   REMARKS
GRAND JUNCTION FAIR      56  22  26 SE14      29.88R
MONTROSE       FAIR      56  26  31 E9        29.97R
EAGLE          NOT AVBL
RIFLE          FAIR      50  31  48 N3        29.92S
DELTA          FAIR      57  26  29 E3        29.94R
NUCLA          FAIR      55  23  28 E5        30.01R
$$

COZ017>023-064>068-241500-
...SOUTHWEST COLORADO...

CITY           SKY/WX    TMP DP  RH WIND       PRES   REMARKS
DURANGO        FAIR      45  27  49 NE3       30.06R
CORTEZ         FAIR      52  27  38 E3        30.00R
PAGOSA SPRINGS FAIR      50  25  37 CALM      30.11R
TELLURIDE      FAIR      49  10  20 E3        30.12S
WOLF CREEK PAS FAIR      32  12  43 SW24G32   30.24F WCI  19
$$

COZ009-010-012-014-032>034-037-058>063-241500-
...CENTRAL COLORADO...

CITY           SKY/WX    TMP DP  RH WIND       PRES   REMARKS
ASPEN          FAIR      49  23  36 CALM      30.01S
BUENA VISTA    FAIR      44  21  40 CALM      30.06F
COPPER MTN     NOT AVBL
BERTHOUD PASS  FAIR      32  23  69 S6        30.22S WCI  26
COTTONWOOD PAS FAIR      48  16  27 E5        30.12S
GUNNISON       FAIR      37  21  52 CALM      30.10F
KREMMLING      FAIR      37  30  75 CALM      30.06S
LEADVILLE      FAIR      41  16  36 CALM      30.11S
MONARCH PASS   FAIR      34  14  44 SW23G30   30.32S WCI  22
SALIDA         FAIR      44  24  46 N3        30.12S
SUNLIGHT       FAIR      39  19  45 CALM      30.17S
WILKERSON PASS FAIR      39  21  48 CALM      30.23R
$$

COZ069>075-241500-
...SAN LUIS VALLEY/SANGRE DE CRISTO MOUNTAINS...

CITY           SKY/WX    TMP DP  RH WIND       PRES   REMARKS
ALAMOSA        FAIR      53  25  33 S7        30.07R
LA VETA PASS   FAIR      45  18  33 SW6       30.16S
SAGUACHE       FAIR      46  23  39 NW5       30.09S
$$

COZ035-036-038>040-241500-
...NORTHERN COLORADO FRONT RANGE...

CITY           SKY/WX    TMP DP  RH WIND       PRES   REMARKS
DENVER INTL AP FAIR      54  45  71 SE6       29.98R
DMNS CITY PARK   N/A     56  41  57 E8        29.98R
AURORA         MOSUNNY   53  47  79 SE2       29.99R
FRONT RANGE AP PTSUNNY   52  46  82 E6        29.99S
ERIE MUNI ARPT FAIR      52  45  79 CALM      29.97S
BOULDER MUN AP FAIR      54  43  66 E3        29.97R
CENTENNIAL     FAIR      53  42  66 SE8       29.99R
BROOMFIELD     MOSUNNY   54  45  71 CALM      29.99R
FORT COLLINS   FAIR      52  43  71 CALM      29.98R
LONGMONT       FAIR      56  45  67 CALM      29.99R
$$

COZ041-046-047-076>085-087-088-241500-
...PIKES PEAK/PALMER DIVIDE AND SOUTHERN FOOTHILLS...

CITY           SKY/WX    TMP DP  RH WIND       PRES   REMARKS
COLO. SPRINGS  PTSUNNY   55  44  66 NE15      30.02R
A. F. ACADEMY  PTSUNNY   54  41  62 VRB6      30.02R
SCHRIEVER AFB  NOT AVBL
ELLICOTT       FAIR     N/A N/A N/A E14       29.99R
FALCON         CLOUDY    51  40  68 NE14      30.04S
FORT CARSON    CLOUDY    55  46  72 E7        30.00R
LIMON          FAIR      57  47  69 E17G28    29.97F
MONUMENT HILL  CLOUDY    46  41  81 E14       30.05R
TRINIDAD       FAIR      55  39  54 NE7       29.98R
$$

COZ042>045-048>051-090-091-241500-
...NORTHEAST COLORADO...

CITY           SKY/WX    TMP DP  RH WIND       PRES   REMARKS
GREELEY ARPT   PTSUNNY   52  45  76 CALM      29.98R
AKRON          CLOUDY    54  44  69 E3        29.97S
BURLINGTON     FAIR      61  52  72 E20       29.93R
WRAY           CLOUDY    59  54  82 NW6       29.95R
STERLING       PTSUNNY   54  48  82 CALM      29.95R
HOLYOKE        FAIR      59  50  72 CALM      29.94F
FORT MORGAN    CLOUDY    53  44  71 SE7       29.98R
$$

COZ086-089-092>099-241500-
...SOUTHEAST COLORADO...

CITY           SKY/WX    TMP DP  RH WIND       PRES   REMARKS
PUEBLO         CLOUDY    57  45  64 SE3       29.96R
LA JUNTA       FAIR      62  43  49 NE13      29.92S
LAMAR          PTSUNNY   60  53  77 NE8       29.88R
SPRINGFIELD      N/A     60  52  74 N18       29.89R
$$



USA.gov is the U.S. government's official web portal to all federal, state and local government web resources and services.